TimeEDT,TemperatureF,Dew PointF,Humidity,Sea Level PressureIn,VisibilityMPH,Wind Direction,Wind SpeedMPH,Gust SpeedMPH,PrecipitationIn,Events,Conditions,WindDirDegrees,DateUTC
12:51 AM,55.9,37.9,51,30.06,10.0,South,4.6,-,N/A,,Clear,170,2011-10-26 04:51:00
1:51 AM,54.0,37.9,55,30.06,10.0,South,4.6,-,N/A,,Clear,170,2011-10-26 05:51:00
2:51 AM,55.9,37.9,51,30.03,10.0,South,5.8,-,N/A,,Clear,170,2011-10-26 06:51:00
3:51 AM,53.1,37.9,57,30.03,10.0,South,5.8,-,N/A,,Clear,190,2011-10-26 07:51:00
4:51 AM,55.9,37.9,51,30.01,10.0,SW,6.9,-,N/A,,Clear,230,2011-10-26 08:51:00
5:51 AM,54.0,39.9,59,30.01,10.0,SW,8.1,-,N/A,,Clear,220,2011-10-26 09:51:00
6:51 AM,55.0,41.0,59,30.03,10.0,SW,10.4,-,N/A,,Clear,230,2011-10-26 10:51:00
7:51 AM,54.0,41.0,62,30.02,10.0,Variable,4.6,-,N/A,,Clear,0,2011-10-26 11:51:00
8:51 AM,55.0,41.0,59,30.01,10.0,SW,9.2,-,N/A,,Clear,230,2011-10-26 12:51:00
9:51 AM,59.0,42.8,55,30.05,10.0,SW,12.7,21.9,N/A,,Clear,230,2011-10-26 13:51:00
10:51 AM,62.1,43.0,50,30.00,10.0,WSW,6.9,17.3,N/A,,Clear,240,2011-10-26 14:51:00
11:51 AM,62.1,43.0,50,29.98,10.0,West,11.5,16.1,N/A,,Scattered Clouds,270,2011-10-26 15:51:00
12:51 PM,64.0,43.0,46,29.96,10.0,WSW,12.7,18.4,N/A,,Partly Cloudy,240,2011-10-26 16:51:00
1:51 PM,64.0,43.0,46,29.94,10.0,WSW,9.2,-,0.00,,Overcast,250,2011-10-26 17:51:00
2:51 PM,64.9,42.1,43,29.91,10.0,WSW,11.5,-,N/A,,Mostly Cloudy,250,2011-10-26 18:51:00
3:51 PM,68.0,43.0,40,29.88,10.0,West,11.5,-,N/A,,Partly Cloudy,270,2011-10-26 19:51:00
4:51 PM,68.0,44.1,42,29.88,10.0,WSW,6.9,-,N/A,,Scattered Clouds,250,2011-10-26 20:51:00
5:51 PM,66.0,45.0,47,29.88,10.0,SW,6.9,-,N/A,,Scattered Clouds,230,2011-10-26 21:51:00
6:51 PM,64.0,44.1,48,29.87,10.0,SSW,4.6,-,0.00,,Mostly Cloudy,210,2011-10-26 22:51:00
7:51 PM,64.0,45.0,50,29.88,10.0,SW,9.2,-,N/A,,Overcast,230,2011-10-26 23:51:00
8:51 PM,59.0,50.0,72,29.89,10.0,SSW,3.5,-,0.00,Rain,Light Rain,210,2011-10-27 00:51:00
9:51 PM,57.9,48.9,72,29.86,10.0,SSW,3.5,-,N/A,,Scattered Clouds,210,2011-10-27 01:51:00
10:51 PM,57.9,48.0,70,29.84,10.0,SSW,8.1,-,N/A,,Clear,200,2011-10-27 02:51:00
11:51 PM,59.0,46.9,64,29.82,10.0,SSW,6.9,-,N/A,,Partly Cloudy,210,2011-10-27 03:51:00